TimeMDT,TemperatureF,Dew PointF,Humidity,Sea Level PressureIn,VisibilityMPH,Wind Direction,Wind SpeedMPH,Gust SpeedMPH,PrecipitationIn,Events,Conditions,WindDirDegrees,DateUTC
12:53 AM,77.0,57.9,52,29.82,10.0,SSE,15.0,-,N/A,,Mostly Cloudy,160,2013-07-16 06:53:00
1:53 AM,77.0,55.9,48,29.81,10.0,SW,12.7,-,N/A,,Mostly Cloudy,220,2013-07-16 07:53:00
2:53 AM,75.0,55.9,51,29.84,10.0,ESE,11.5,-,N/A,,Clear,120,2013-07-16 08:53:00
3:53 AM,73.9,55.9,53,29.83,10.0,Calm,Calm,-,N/A,,Clear,0,2013-07-16 09:53:00
4:53 AM,73.0,55.0,53,29.84,10.0,SE,4.6,-,N/A,,Clear,130,2013-07-16 10:53:00
5:53 AM,73.0,57.9,59,29.85,10.0,SE,8.1,-,N/A,,Clear,140,2013-07-16 11:53:00
6:53 AM,73.9,57.0,55,29.87,10.0,South,10.4,-,N/A,,Clear,180,2013-07-16 12:53:00
7:53 AM,75.9,57.0,52,29.88,10.0,SSE,12.7,-,N/A,,Clear,160,2013-07-16 13:53:00
8:53 AM,78.1,55.9,46,29.89,10.0,South,12.7,-,N/A,,Clear,170,2013-07-16 14:53:00
9:53 AM,81.0,55.9,42,29.89,10.0,SE,9.2,-,N/A,,Clear,140,2013-07-16 15:53:00
10:53 AM,82.9,55.0,38,29.89,10.0,ESE,5.8,-,N/A,,Clear,120,2013-07-16 16:53:00
11:53 AM,84.0,54.0,35,29.89,10.0,Variable,5.8,-,N/A,,Mostly Cloudy,0,2013-07-16 17:53:00
12:53 PM,86.0,53.1,32,29.87,10.0,Calm,Calm,-,N/A,,Mostly Cloudy,0,2013-07-16 18:53:00
1:53 PM,89.1,52.0,28,29.84,10.0,Variable,4.6,-,N/A,,Clear,0,2013-07-16 19:53:00
2:53 PM,90.0,51.1,26,29.81,10.0,SSW,10.4,-,N/A,,Mostly Cloudy,200,2013-07-16 20:53:00
3:53 PM,93.9,50.0,22,29.79,10.0,Calm,Calm,-,N/A,,Clear,0,2013-07-16 21:53:00
4:53 PM,93.0,50.0,23,29.78,10.0,Variable,4.6,-,N/A,,Scattered Clouds,0,2013-07-16 22:53:00
5:53 PM,95.0,50.0,22,29.76,10.0,SW,8.1,-,N/A,,Clear,230,2013-07-16 23:53:00
6:53 PM,91.9,48.9,23,29.75,10.0,WNW,5.8,-,N/A,,Mostly Cloudy,300,2013-07-17 00:53:00
7:53 PM,91.0,48.9,23,29.76,10.0,West,12.7,-,N/A,,Mostly Cloudy,270,2013-07-17 01:53:00
8:53 PM,89.1,50.0,26,29.78,10.0,West,9.2,-,N/A,,Clear,260,2013-07-17 02:53:00
9:30 PM,87.8,51.8,29,30.00,10.0,West,15.0,18.4,N/A,Thunderstorm,Partly Cloudy,280,2013-07-17 03:30:00
9:53 PM,87.1,51.1,29,29.83,10.0,WSW,9.2,21.9,N/A,Thunderstorm,Mostly Cloudy,250,2013-07-17 03:53:00
10:16 PM,80.6,55.4,42,30.05,10.0,South,21.9,28.8,0.01,Thunderstorm,Thunderstorm,190,2013-07-17 04:16:00
10:25 PM,75.2,64.4,69,30.05,1.8,West,11.5,38.0,0.16,Rain-Thunderstorm,Heavy Thunderstorms and Rain,260,2013-07-17 04:25:00
10:31 PM,73.4,62.6,69,30.06,3.0,West,12.7,36.8,0.18,Rain-Thunderstorm,Thunderstorms and Rain,260,2013-07-17 04:31:00
10:53 PM,75.0,63.0,66,29.87,10.0,Variable,6.9,-,0.18,Thunderstorm,Scattered Clouds,0,2013-07-17 04:53:00
11:00 PM,75.2,62.6,65,30.05,10.0,SW,4.6,-,N/A,,Partly Cloudy,230,2013-07-17 05:00:00
11:53 PM,75.9,63.0,64,29.88,10.0,SE,12.7,-,N/A,,Clear,130,2013-07-17 05:53:00